STARLINK-3060, 49155

Orbit data source: Space-Track

STARLINK-3060, 49155 is a payload satellite owned by SpaceX/Seattle (US) in LEO that was launched on Tue, 14 Sep 2021 UTC via an FALCON 9 launch vehicle from the Air Force Western Test Range (AFWTR). Payload-class satellites include a variety of spacecraft equipped with specific instruments for various scientific and technological missions. These include communications satellites like Starlink; space stations such as the ISS; scientific satellites like the Hubble; Earth observation satellites from companies like Planet Labs, Umbra, and HawkEye 360; GPS; miniature CubeSats for education and research; and military/defense satellites.

Loading next visibility...
Identifier
49155, 2021-082AB
Orbit
LEO
Last TLE update
13 hours ago
Origin
Manufacturer
SpaceX/Seattle
Mission
Operational Commercial Communications
Bus & Motor
STARLINK, Unknown motor
Mass
297 kg wet, ~275 kg dry
Launch date (UTC)
2021-09-14 (4 years ago)
Launch vehicle
FALCON 9
Launch site
Air Force Western Test Range (AFWTR)
Object type
Payload
Rocket body
Debris
Shape & HBR
Box + 1 Pan, 8.86 m
Radar Cross Section
13.562 m², Large (>1 m²)

Expand to show TLE details & history

TLE from 13 hours ago
0 STARLINK-3060
1 49155U 21082AB  25128.87078126 -.00000299  00000-0 -17290-4 0  9999
2 49155  69.9991 303.0010 0002967 263.9316  96.1504 14.98332170202388
Epoch: 2025-05-08T20:53Z
Definitive object data (Epoch: 2025-05-08T20:53:55.5Z)
Latitude
-0.00014°
Longitude
122.58463°
Altitude
574.695 km
Speed
7.574 km/s
True Right ascension
20h 12m 00s
True Declination
0° 00' 01"
Sunlit
Object was in daylight at TLE epoch
Visualization TLE readout
Latitude
-36.78702°
Longitude
105.55204°
Altitude
584.335 km
Speed
7.568 km/s
Apparent Right ascension
23h 03m 34s
Apparent Declination
-76° 25' 51"
Sunlit
Object is in full shadow
Visualization observer readout
Local Sidereal Time
17:41:48
Azimuth
163.288° S
Elevation
-36.432°
Doppler factor
1
Orbital elements
Apogee altitude
572.059 km
Perigee altitude
567.936 km
Semi-major axis
6,948.135 km
Eccentricity
0.0002967
Inclination
69.9991°
RAAN
303.001°
Arg. of periapsis
263.9316°
True anomaly
96.1842°
Mean anomaly
96.1504°
Eccentric anomaly
96.1673°
Mean motion
3.74749 °/min
BSTAR
-0.00001729
Orbital period
96.06 mins
Loading maneuver chart data...
Loading SW <> Apogee altitude chart data...
Loading historical data...
Loading historical data...
Loading historical data...
Loading historical data...
Loading historical data...
Loading historical data...
Loading historical data...

STARLINK-3060 Visibility forecast

Observer location: undefined°, undefined°

Span
Click to sort rows by Start time (UTC) header in descending order
Start Az.
Max El. time (UTC)
Max El. Az.
Max El.
End time (UTC)
End Az.
7 mins2025-05-09 13:03:28.303Z203.987° SW2025-05-09 13:06:28.303Z210.977° SW44.329°2025-05-09 13:10:28.303Z24.001° NE
4 mins2025-05-09 21:29:28.303Z31.578° NE2025-05-09 21:30:28.303Z49.33° ENE17.26°2025-05-09 21:33:28.303Z96.847° ESE
6 mins2025-05-09 23:06:28.303Z312.853° NW2025-05-09 23:09:28.303Z240.469° WSW32.403°2025-05-09 23:12:28.303Z185.233° SSW
|